GW5255 Weather Reports


time (UTC)temp
C
wind
direction
speed
KPH
gust
KPH
rain 1hr
cm
rain 24hr
cm
rain mn
cm
humidity
%
barometer
mb
20260504141008 13 64 3.2 6.4 0.00 0.00 0.00 78 1016.2
20260504140505 12 67 3.2 6.4 0.00 0.00 0.00 81 1016.5
20260504130424 13 131 3.2 11.3 0.00 0.00 0.00 67 1015.9
20260504110311 7 90 1.6 3.2 0.00 0.00 0.00 86 1015.7
20260504100229 7 124 1.6 4.8 0.00 0.00 0.00 82 1015.6
20260504081622 7 101 1.6 1.6 0.00 0.00 0.00 79 1016.3
20260504081118 7 93 1.6 3.2 0.00 0.00 0.00 80 1016.2
20260504080615 7 94 1.6 3.2 0.00 0.00 0.00 79 1016.1
20260504080111 7 90 1.6 3.2 0.00 0.00 0.00 79 1016.3
20260504050427 8 96 3.2 3.2 0.00 0.00 0.00 85 1017.5
20260504045919 9 93 1.6 3.2 0.00 0.00 0.00 82 1017.9
20260504045414 9 94 0.0 1.6 0.00 0.00 0.00 81 1018.0
20260504044911 10 106 0.0 1.6 0.00 0.00 0.00 76 1018.0
20260504044408 8 136 1.6 1.6 0.00 0.00 0.00 79 1017.9
20260504043906 8 91 3.2 4.8 0.00 0.00 0.00 83 1017.7
20260504043402 9 83 0.0 3.2 0.00 0.00 0.00 82 1018.0
20260504042900 9 91 3.2 3.2 0.00 0.00 0.00 81 1018.0
20260504042356 8 84 0.0 0.0 0.00 0.00 0.00 80 1017.9
20260504041852 9 84 0.0 0.0 0.00 0.00 0.00 81 1018.0
20260504041348 9 84 0.0 1.6 0.00 0.00 0.00 80 1017.7
20260504040845 9 84 0.0 0.0 0.00 0.00 0.00 79 1018.1
20260504040343 9 84 0.0 0.0 0.00 0.00 0.00 78 1018.3
20260504035838 9 85 0.0 0.0 0.00 0.00 0.00 76 1018.2
20260504035337 9 84 0.0 0.0 0.00 0.00 0.00 77 1018.0
20260504034833 9 86 3.2 3.2 0.00 0.00 0.00 78 1017.7
20260504034330 9 94 0.0 1.6 0.00 0.00 0.00 78 1018.0
20260504033827 9 86 0.0 1.6 0.00 0.00 0.00 73 1018.0
20260504033325 9 103 0.0 1.6 0.00 0.00 0.00 71 1017.9
20260504032821 9 83 0.0 1.6 0.00 0.00 0.00 78 1017.4
20260504032319 9 87 1.6 3.2 0.00 0.00 0.00 76 1017.7
20260504031815 9 110 1.6 1.6 0.00 0.00 0.00 77 1017.7
20260504031313 9 84 0.0 3.2 0.00 0.00 0.00 77 1017.9
20260504030809 9 85 1.6 3.2 0.00 0.00 0.00 77 1018.2
20260504030306 9 99 0.0 0.0 0.00 0.00 0.00 76 1018.1
20260504025802 9 96 0.0 0.0 0.00 0.00 0.00 75 1018.0
20260504025259 9 95 0.0 0.0 0.00 0.00 0.00 74 1018.0
20260504024756 9 84 0.0 1.6 0.00 0.00 0.00 75 1018.0
20260504024252 9 90 1.6 3.2 0.00 0.00 0.00 75 1018.1
20260504023749 9 93 0.0 0.0 0.00 0.00 0.00 77 1017.9
20260504023246 10 93 0.0 0.0 0.00 0.00 0.00 72 1017.6
20260504022742 10 93 0.0 0.0 0.00 0.00 0.00 70 1017.9
20260504022238 10 94 0.0 0.0 0.00 0.00 0.00 70 1017.7
20260504021735 10 93 0.0 0.0 0.00 0.00 0.00 70 1017.7
20260504021232 10 95 0.0 0.0 0.00 0.00 0.00 72 1017.5
20260504020729 10 85 0.0 0.0 0.00 0.00 0.00 71 1017.3
20260504020226 10 85 0.0 0.0 0.00 0.00 0.00 68 1017.5
20260504015722 10 88 0.0 0.0 0.00 0.00 0.00 74 1017.3
20260504015219 10 78 3.2 3.2 0.00 0.00 0.00 74 1017.2
20260504014714 10 87 3.2 3.2 0.00 0.00 0.00 69 1017.2
20260504014211 10 80 1.6 3.2 0.00 0.00 0.00 69 1017.1
20260504013709 10 82 0.0 3.2 0.00 0.00 0.00 70 1017.1
20260504013206 10 80 1.6 1.6 0.00 0.00 0.00 66 1017.2
20260504012703 10 80 1.6 1.6 0.00 0.00 0.00 69 1017.3
20260504012201 10 87 1.6 1.6 0.00 0.00 0.00 67 1017.1
20260504011658 10 84 1.6 1.6 0.00 0.00 0.00 67 1017.1
20260504011154 10 83 1.6 3.2 0.00 0.00 0.00 71 1017.4
20260504010650 10 93 1.6 3.2 0.00 0.00 0.00 64 1017.4
20260504010145 10 91 1.6 1.6 0.00 0.00 0.00 62 1017.3
20260504005643 11 93 1.6 3.2 0.00 0.00 0.00 61 1017.3
20260504005139 11 92 0.0 0.0 0.00 0.00 0.00 63 1017.4
20260504004638 11 92 0.0 0.0 0.00 0.00 0.00 61 1017.2
20260504004134 11 97 0.0 0.0 0.00 0.00 0.00 57 1017.4
20260504003631 11 97 0.0 0.0 0.00 0.00 0.00 57 1017.3
20260504003127 11 97 0.0 0.0 0.00 0.00 0.00 55 1017.2
20260504002624 12 97 0.0 0.0 0.00 0.00 0.00 54 1017.0
20260504002122 12 99 0.0 0.0 0.00 0.00 0.00 53 1017.3
20260504001620 12 99 0.0 0.0 0.00 0.00 0.00 53 1017.2
20260504001115 12 99 0.0 0.0 0.00 0.00 0.00 50 1017.2
20260504000613 12 185 0.0 0.0 0.00 0.00 0.00 57 1017.3
20260504000110 12 186 0.0 1.6 0.00 0.00 0.00 48 1017.3
20260503235608 13 170 0.0 1.6 0.00 0.00 0.00 46 1017.3
20260503235105 13 171 0.0 1.6 0.00 0.00 0.00 46 1017.0
20260503234603 13 169 0.0 0.0 0.00 0.00 0.00 44 1017.1
20260503234100 13 199 0.0 0.0 0.00 0.00 0.00 48 1017.2
20260503233557 14 188 0.0 0.0 0.00 0.00 0.00 45 1016.9
20260503233053 14 165 1.6 3.2 0.00 0.00 0.00 45 1017.2
20260503232550 15 174 1.6 1.6 0.00 0.00 0.00 44 1017.6
20260503232047 15 199 1.6 3.2 0.00 0.00 0.00 46 1017.4
20260503231545 15 187 1.6 3.2 0.00 0.00 0.00 47 1017.2
20260503231041 16 200 1.6 3.2 0.00 0.00 0.00 36 1017.4
20260503230538 15 117 1.6 1.6 0.00 0.00 0.00 45 1017.3
20260503230036 16 192 3.2 3.2 0.00 0.00 0.00 46 1017.7
20260503225532 16 8 3.2 12.9 0.00 0.00 0.00 34 1017.6
20260503225027 16 19 4.8 4.8 0.00 0.00 0.00 35 1017.5
20260503224525 16 302 1.6 12.9 0.00 0.00 0.00 32 1017.6
20260503224023 16 23 3.2 6.4 0.00 0.00 0.00 34 1017.9
20260503223520 16 46 1.6 4.8 0.00 0.00 0.00 35 1017.9
20260503223016 17 82 8.0 9.7 0.00 0.00 0.00 38 1018.0
20260503222514 16 9 3.2 6.4 0.00 0.00 0.00 32 1018.1
20260503222012 17 41 3.2 11.3 0.00 0.00 0.00 32 1017.9
20260503221510 17 55 0.0 3.2 0.00 0.00 0.00 32 1017.9
20260503221007 17 338 1.6 6.4 0.00 0.00 0.00 34 1017.9
20260503220503 18 318 6.4 9.7 0.00 0.00 0.00 32 1017.7
20260503220000 17 177 3.2 6.4 0.00 0.00 0.00 36 1017.7
20260503215457 17 2 1.6 4.8 0.00 0.00 0.00 33 1017.9
20260503214954 17 209 0.0 4.8 0.00 0.00 0.00 34 1018.1
20260503214452 17 71 3.2 4.8 0.00 0.00 0.00 31 1018.0
20260503213949 17 272 1.6 9.7 0.00 0.00 0.00 31 1018.1
20260503213448 17 208 1.6 3.2 0.00 0.00 0.00 34 1018.1
20260503212943 17 175 3.2 11.3 0.00 0.00 0.00 32 1018.1
20260503212441 17 26 3.2 12.9 0.00 0.00 0.00 34 1018.1
20260503211938 16 349 9.7 14.5 0.00 0.00 0.00 33 1017.9
20260503211435 17 353 14.5 22.5 0.00 0.00 0.00 31 1018.2
20260503210930 17 240 9.7 12.9 0.00 0.00 0.00 34 1018.3
20260503210427 17 27 1.6 11.3 0.00 0.00 0.00 33 1018.2
20260503205922 16 96 6.4 14.5 0.00 0.00 0.00 33 1018.1
20260503205420 16 347 9.7 16.1 0.00 0.00 0.00 37 1018.4
20260503204916 17 23 4.8 12.9 0.00 0.00 0.00 31 1018.3
20260503204413 17 301 4.8 12.9 0.00 0.00 0.00 41 1018.4
20260503203910 17 334 3.2 4.8 0.00 0.00 0.00 33 1018.5
20260503203408 16 293 4.8 6.4 0.00 0.00 0.00 32 1018.6
20260503202904 17 1 3.2 4.8 0.00 0.00 0.00 32 1018.6
20260503202403 16 62 3.2 11.3 0.00 0.00 0.00 37 1018.7
20260503201901 16 178 4.8 9.7 0.00 0.00 0.00 35 1018.9
20260503201357 16 29 4.8 14.5 0.00 0.00 0.00 31 1019.0
20260503200855 16 34 6.4 16.1 0.00 0.00 0.00 32 1019.0
20260503200350 16 60 3.2 4.8 0.00 0.00 0.00 38 1019.1
20260503195848 16 53 1.6 6.4 0.00 0.00 0.00 33 1019.4
20260503195344 16 106 0.0 12.9 0.00 0.00 0.00 33 1019.2
20260503194842 16 18 8.0 12.9 0.00 0.00 0.00 33 1019.4
20260503194338 16 354 6.4 11.3 0.00 0.00 0.00 34 1019.3
20260503193834 15 73 3.2 12.9 0.00 0.00 0.00 34 1019.5
20260503193330 15 26 1.6 6.4 0.00 0.00 0.00 32 1019.7
20260503192826 16 262 3.2 6.4 0.00 0.00 0.00 33 1019.8
20260503192322 16 18 3.2 6.4 0.00 0.00 0.00 36 1019.7
20260503191818 16 340 1.6 6.4 0.00 0.00 0.00 40 1019.8
20260503191315 16 277 1.6 4.8 0.00 0.00 0.00 33 1019.9
20260503190812 15 113 4.8 6.4 0.00 0.00 0.00 34 1020.0
20260503190309 16 194 6.4 14.5 0.00 0.00 0.00 36 1020.2
20260503185806 15 21 3.2 6.4 0.00 0.00 0.00 35 1020.2
20260503185301 15 21 4.8 11.3 0.00 0.00 0.00 40 1020.5
20260503184801 15 72 0.0 6.4 0.00 0.00 0.00 33 1020.4
20260503184258 15 112 1.6 6.4 0.00 0.00 0.00 35 1020.7
20260503183754 15 285 9.7 14.5 0.00 0.00 0.00 35 1020.7
20260503183252 15 168 4.8 9.7 0.00 0.00 0.00 42 1020.9
20260503182749 15 253 6.4 9.7 0.00 0.00 0.00 34 1020.9
20260503182248 15 41 3.2 9.7 0.00 0.00 0.00 41 1021.0
20260503181744 15 24 6.4 12.9 0.00 0.00 0.00 37 1020.9
20260503181241 14 267 1.6 4.8 0.00 0.00 0.00 39 1021.1
20260503180737 14 49 3.2 4.8 0.00 0.00 0.00 36 1021.2
20260503180236 14 254 4.8 6.4 0.00 0.00 0.00 36 1021.3
20260503175732 14 209 1.6 9.7 0.00 0.00 0.00 37 1021.3
20260503175230 13 182 6.4 14.5 0.00 0.00 0.00 36 1021.5
20260503174726 14 23 6.4 9.7 0.00 0.00 0.00 43 1021.6
20260503174225 14 236 0.0 4.8 0.00 0.00 0.00 39 1021.7
20260503173724 14 281 9.7 11.3 0.00 0.00 0.00 37 1021.7
20260503173220 13 66 4.8 6.4 0.00 0.00 0.00 37 1021.6
20260503172717 13 32 6.4 9.7 0.00 0.00 0.00 35 1021.8
20260503172215 13 324 1.6 11.3 0.00 0.00 0.00 35 1022.0
20260503171711 13 63 8.0 9.7 0.00 0.00 0.00 37 1021.8
20260503171208 13 25 1.6 9.7 0.00 0.00 0.00 37 1022.1
20260503170705 13 298 8.0 11.3 0.00 0.00 0.00 37 1022.1
20260503170202 13 36 4.8 11.3 0.00 0.00 0.00 35 1022.1
20260503160124 12 16 6.4 12.9 0.00 0.00 0.00 42 1023.0
20260503150553 11 150 6.4 11.3 0.00 0.00 0.00 46 1023.3